STARLINK-2708 (48661 NORAD) Tracking and Keplerian Element Data

This shows tracking and keplerian element data for the satellite.

Feedback or suggestion? Click here.




ElementValue
Catalog48661
NameSTARLINK-2708
Epoch Orbit364
Epoch Day210.91668981
Epoch Year2021
RAAN110.7669
Inclination53.0472
Eccentricity0.000153
Argument of Perigee66.5492
Mean Anonmoly155.7025
Mean Motion15.2165604
Decay Rate-0.00930891
L11 48661U 21044Z 21210.91668981 -.00930891 00000-0 -43913-1 0 9993
L22 48661 53.0472 110.7669 0001530 66.5492 155.7025 15.21656040 3647

Live tracking and technical data element details for STARLINK-2708 (NORAD 48661). STARLINK-2708 can be tracked NOW for your location showing map with azimuth and elevation plus other details from your city location.

Track the satellite on the map from your city or location and see movement details for azimuth, elevation, latitude, longitude, range, height, and movement on the map or in text.







IsCatalogInMostPopularTable: catalog: 48661, numindb: 14
Update: records affected: 1



GetName: 48661 STARLINK-2708

Hit Count: updated at: Sat, 31 Jul 2021 15:53:19 GMT